| time (UTC) | temp F | wind direction | speed knots | gust knots | rain 1hr in | rain 24hr in | rain mn in | humidity % | barometer mb |
| 20260504081557 | 52 | 167 | 5.2 | 7.8 | 0.00 | 0.00 | 0.00 | 89 | 1006.4 |
| 20260504044530 | 54 | 150 | 4.3 | 7.0 | 0.00 | 0.00 | 0.00 | 81 | 1008.1 |
| 20260504043030 | 54 | 178 | 2.6 | 7.0 | 0.00 | 0.00 | 0.00 | 80 | 1008.2 |
| 20260504041529 | 55 | 200 | 2.6 | 6.1 | 0.00 | 0.00 | 0.00 | 79 | 1008.4 |
| 20260504040028 | 56 | 175 | 3.5 | 6.1 | 0.00 | 0.00 | 0.00 | 76 | 1008.3 |
| 20260504034533 | 56 | 215 | 3.5 | 7.0 | 0.00 | 0.00 | 0.00 | 75 | 1008.3 |
| 20260504033044 | 56 | 169 | 3.5 | 7.0 | 0.00 | 0.00 | 0.00 | 75 | 1008.5 |
| 20260504031531 | 56 | 167 | 2.6 | 6.1 | 0.00 | 0.00 | 0.00 | 75 | 1008.6 |
| 20260504030027 | 57 | 178 | 4.3 | 7.0 | 0.00 | 0.00 | 0.00 | 74 | 1008.4 |
| 20260504024541 | 57 | 205 | 3.5 | 6.1 | 0.00 | 0.00 | 0.00 | 74 | 1008.5 |
| 20260504023026 | 58 | 182 | 3.5 | 6.1 | 0.00 | 0.00 | 0.00 | 71 | 1008.7 |
| 20260504021525 | 60 | 189 | 2.6 | 4.3 | 0.00 | 0.00 | 0.00 | 67 | 1008.6 |
| 20260504020025 | 61 | 209 | 1.7 | 3.5 | 0.00 | 0.00 | 0.00 | 66 | 1008.4 |
| 20260504014524 | 60 | 198 | 1.7 | 4.3 | 0.00 | 0.00 | 0.00 | 68 | 1008.4 |
| 20260504013024 | 61 | 220 | 0.9 | 3.5 | 0.00 | 0.00 | 0.00 | 65 | 1008.4 |
| 20260504011524 | 64 | 225 | 1.7 | 4.3 | 0.00 | 0.00 | 0.00 | 60 | 1008.2 |
| 20260504010027 | 64 | 259 | 1.7 | 3.5 | 0.00 | 0.00 | 0.00 | 60 | 1008.2 |
| 20260504004537 | 64 | 259 | 1.7 | 2.6 | 0.00 | 0.00 | 0.00 | 60 | 1008.1 |
| 20260504003022 | 64 | 277 | 0.0 | 3.5 | 0.00 | 0.00 | 0.00 | 60 | 1008.0 |
| 20260504001522 | 65 | 242 | 3.5 | 7.0 | 0.00 | 0.00 | 0.00 | 58 | 1007.9 |
| 20260504000021 | 66 | 256 | 2.6 | 7.0 | 0.00 | 0.00 | 0.00 | 57 | 1008.0 |
| 20260503234521 | 66 | 255 | 2.6 | 7.8 | 0.00 | 0.00 | 0.00 | 55 | 1008.0 |
| 20260503233024 | 67 | 272 | 2.6 | 10.4 | 0.00 | 0.00 | 0.00 | 52 | 1008.2 |
| 20260503231520 | 68 | 215 | 9.6 | 16.5 | 0.00 | 0.00 | 0.00 | 49 | 1007.9 |
| 20260503230017 | 67 | 229 | 7.8 | 14.8 | 0.00 | 0.00 | 0.00 | 49 | 1007.9 |
| 20260503224515 | 67 | 231 | 7.8 | 17.4 | 0.00 | 0.00 | 0.00 | 49 | 1008.1 |
| 20260503223014 | 67 | 209 | 11.3 | 23.5 | 0.00 | 0.00 | 0.00 | 49 | 1008.0 |
| 20260503221512 | 66 | 214 | 10.4 | 17.4 | 0.00 | 0.00 | 0.00 | 48 | 1008.3 |
| 20260503220014 | 66 | 231 | 7.8 | 19.1 | 0.00 | 0.00 | 0.00 | 50 | 1008.2 |
| 20260503214508 | 66 | 211 | 11.3 | 25.2 | 0.00 | 0.00 | 0.00 | 50 | 1007.9 |
| 20260503213008 | 64 | 220 | 13.0 | 21.7 | 0.00 | 0.00 | 0.00 | 52 | 1008.2 |
| 20260503211506 | 64 | 163 | 13.0 | 20.9 | 0.00 | 0.00 | 0.00 | 51 | 1008.3 |
| 20260503210005 | 64 | 173 | 15.6 | 24.3 | 0.00 | 0.00 | 0.00 | 55 | 1008.1 |
| 20260503204502 | 63 | 213 | 12.2 | 21.7 | 0.00 | 0.00 | 0.00 | 52 | 1008.9 |
| 20260503203004 | 63 | 180 | 17.4 | 33.0 | 0.00 | 0.00 | 0.00 | 51 | 1008.6 |
| 20260503201559 | 63 | 196 | 15.6 | 24.3 | 0.00 | 0.00 | 0.00 | 51 | 1009.4 |
| 20260503200058 | 64 | 184 | 19.1 | 30.4 | 0.00 | 0.00 | 0.00 | 50 | 1009.4 |
| 20260503194555 | 62 | 212 | 19.1 | 33.0 | 0.00 | 0.00 | 0.00 | 53 | 1010.0 |
| 20260503193058 | 62 | 155 | 20.9 | 30.4 | 0.00 | 0.00 | 0.00 | 51 | 1009.8 |
| 20260503191555 | 62 | 198 | 18.2 | 31.3 | 0.00 | 0.00 | 0.00 | 50 | 1009.6 |
| 20260503190058 | 62 | 173 | 19.1 | 31.3 | 0.00 | 0.00 | 0.00 | 50 | 1010.2 |
| 20260503184601 | 62 | 163 | 14.8 | 26.1 | 0.00 | 0.00 | 0.00 | 51 | 1010.6 |
| 20260503183045 | 62 | 159 | 13.0 | 25.2 | 0.00 | 0.00 | 0.00 | 53 | 1011.4 |
| 20260503181542 | 62 | 207 | 16.5 | 25.2 | 0.00 | 0.00 | 0.00 | 53 | 1012.4 |
| 20260503180037 | 60 | 193 | 11.3 | 22.6 | 0.00 | 0.00 | 0.00 | 54 | 1013.0 |
| 20260503174554 | 60 | 177 | 10.4 | 20.0 | 0.00 | 0.00 | 0.00 | 55 | 1013.5 |
| 20260503173034 | 59 | 205 | 13.0 | 21.7 | 0.00 | 0.00 | 0.00 | 55 | 1013.7 |
| 20260503171533 | 59 | 198 | 12.2 | 22.6 | 0.00 | 0.00 | 0.00 | 55 | 1014.0 |